| time (UTC) | temp F | wind direction | speed MPH | gust MPH | rain 1hr in | rain 24hr in | rain mn in | humidity % | barometer mb |
| 20260506162426 | 54 | 312 | 5.0 | 8.0 | 0.00 | 0.64 | 0.19 | 100 | 1117.9 |
| 20260506161427 | 53 | 288 | 6.0 | 11.0 | 0.00 | 0.64 | 0.19 | 100 | 1117.6 |
| 20260506160508 | 53 | 295 | 6.0 | 9.0 | 0.00 | 0.64 | 0.19 | 100 | 1117.6 |
| 20260506155526 | 53 | 286 | 6.0 | 12.0 | 0.00 | 0.64 | 0.19 | 100 | 1117.4 |
| 20260506154524 | 54 | 286 | 5.0 | 7.0 | 0.00 | 0.64 | 0.19 | 100 | 1117.4 |
| 20260506152625 | 53 | 305 | 4.0 | 7.0 | 0.00 | 0.64 | 0.19 | 100 | 1117.4 |
| 20260506150624 | 51 | 299 | 5.0 | 8.0 | 0.00 | 0.64 | 0.19 | 100 | 1117.1 |
| 20260506145626 | 50 | 296 | 6.0 | 9.0 | 0.00 | 0.64 | 0.19 | 100 | 1116.7 |
| 20260506145524 | 50 | 295 | 6.0 | 11.0 | 0.00 | 0.64 | 0.19 | 100 | 1116.7 |
| 20260506144525 | 49 | 298 | 4.0 | 6.0 | 0.00 | 0.64 | 0.19 | 100 | 1116.6 |
| 20260506143525 | 49 | 306 | 7.0 | 12.0 | 0.00 | 0.64 | 0.19 | 100 | 1116.3 |
| 20260506142525 | 49 | 295 | 5.0 | 11.0 | 0.00 | 0.64 | 0.19 | 100 | 1116.2 |
| 20260506141524 | 48 | 299 | 5.0 | 8.0 | 0.00 | 0.64 | 0.19 | 100 | 1116.3 |
| 20260506140528 | 48 | 291 | 3.0 | 8.0 | 0.00 | 0.64 | 0.19 | 100 | 1116.3 |
| 20260506135623 | 47 | 286 | 5.0 | 8.0 | 0.00 | 0.64 | 0.19 | 100 | 1116.1 |
| 20260506134624 | 47 | 294 | 6.0 | 9.0 | 0.00 | 0.64 | 0.19 | 100 | 1116.1 |
| 20260506132629 | 46 | 294 | 4.0 | 7.0 | 0.00 | 0.64 | 0.19 | 100 | 1115.9 |
| 20260506131724 | 46 | 289 | 3.0 | 6.0 | 0.00 | 0.64 | 0.19 | 100 | 1115.8 |
| 20260506130725 | 45 | 296 | 4.0 | 5.0 | 0.00 | 0.64 | 0.19 | 100 | 1115.7 |
| 20260506124824 | 45 | 304 | 2.0 | 4.0 | 0.00 | 0.64 | 0.19 | 100 | 1115.1 |
| 20260506123824 | 45 | 292 | 4.0 | 8.0 | 0.00 | 0.64 | 0.19 | 100 | 1115.2 |
| 20260506122824 | 45 | 312 | 4.0 | 6.0 | 0.00 | 0.64 | 0.19 | 100 | 1114.8 |
| 20260506121824 | 44 | 295 | 4.0 | 8.0 | 0.00 | 0.64 | 0.19 | 100 | 1114.6 |
| 20260506120825 | 44 | 304 | 5.0 | 9.0 | 0.00 | 0.64 | 0.19 | 100 | 1114.5 |
| 20260506115826 | 44 | 300 | 3.0 | 5.0 | 0.00 | 0.64 | 0.19 | 100 | 1114.3 |
| 20260506112923 | 43 | 292 | 3.0 | 4.0 | 0.00 | 0.64 | 0.19 | 100 | 1114.3 |
| 20260506111925 | 43 | 292 | 1.0 | 2.0 | 0.00 | 0.65 | 0.19 | 100 | 1114.3 |
| 20260506110923 | 43 | 292 | 2.0 | 3.0 | 0.00 | 0.65 | 0.19 | 100 | 1114.1 |
| 20260506105926 | 43 | 337 | 2.0 | 3.0 | 0.00 | 0.65 | 0.19 | 100 | 1113.4 |
| 20260506105023 | 43 | 330 | 1.0 | 2.0 | 0.00 | 0.65 | 0.19 | 100 | 1113.3 |
| 20260506104026 | 43 | 327 | 1.0 | 3.0 | 0.00 | 0.65 | 0.19 | 100 | 1113.7 |
| 20260506102224 | 43 | 301 | 4.0 | 8.0 | 0.00 | 0.66 | 0.19 | 100 | 1113.6 |
| 20260506101224 | 43 | 292 | 4.0 | 7.0 | 0.01 | 0.66 | 0.19 | 100 | 1112.9 |
| 20260506100207 | 43 | 300 | 4.0 | 7.0 | 0.01 | 0.66 | 0.19 | 100 | 1113.0 |
| 20260506095225 | 43 | 315 | 1.0 | 2.0 | 0.01 | 0.66 | 0.19 | 100 | 1112.6 |
| 20260506094225 | 44 | 22 | 2.0 | 4.0 | 0.01 | 0.66 | 0.19 | 100 | 1111.8 |
| 20260506093210 | 44 | 1 | 3.0 | 4.0 | 0.01 | 0.66 | 0.19 | 100 | 1111.9 |
| 20260506092224 | 44 | 315 | 1.0 | 3.0 | 0.01 | 0.66 | 0.19 | 100 | 1112.5 |
| 20260506090226 | 44 | 315 | 1.0 | 3.0 | 0.00 | 0.65 | 0.18 | 100 | 1113.4 |
| 20260506085236 | 44 | 315 | 2.0 | 3.0 | 0.00 | 0.65 | 0.18 | 100 | 1113.3 |
| 20260506085219 | 44 | 315 | 3.0 | 3.0 | 0.00 | 0.65 | 0.18 | 100 | 1113.3 |
| 20260506062322 | 44 | 345 | 4.0 | 6.0 | 0.05 | 0.62 | 0.15 | 100 | 1112.9 |
| 20260506061323 | 45 | 337 | 6.0 | 10.0 | 0.05 | 0.60 | 0.13 | 100 | 1112.8 |
| 20260506050507 | 47 | 337 | 3.0 | 4.0 | 0.06 | 0.54 | 0.07 | 100 | 1113.4 |
| 20260506044523 | 47 | 15 | 5.0 | 8.0 | 0.06 | 0.52 | 0.05 | 100 | 1113.1 |
| 20260506042622 | 47 | 360 | 1.0 | 3.0 | 0.05 | 0.49 | 0.01 | 100 | 1113.0 |
| 20260506041721 | 47 | 352 | 1.0 | 4.0 | 0.05 | 0.48 | 0.01 | 100 | 1113.1 |
| 20260506040724 | 47 | 330 | 2.0 | 4.0 | 0.05 | 0.48 | 0.01 | 100 | 1113.2 |
| 20260506034740 | 47 | 337 | 2.0 | 4.0 | 0.06 | 0.46 | 0.46 | 100 | 1113.5 |
| 20260506033740 | 47 | 331 | 0.0 | 1.0 | 0.07 | 0.45 | 0.45 | 100 | 1113.7 |
| 20260506032739 | 47 | 299 | 4.0 | 6.0 | 0.07 | 0.44 | 0.44 | 100 | 1113.8 |
| 20260506031737 | 47 | 340 | 1.0 | 3.0 | 0.08 | 0.43 | 0.43 | 100 | 1114.1 |
| 20260506025739 | 48 | 315 | 2.0 | 3.0 | 0.12 | 0.42 | 0.41 | 100 | 1114.3 |
| 20260506024838 | 48 | 308 | 2.0 | 8.0 | 0.12 | 0.41 | 0.40 | 100 | 1114.3 |
| 20260506023937 | 48 | 285 | 3.0 | 4.0 | 0.12 | 0.39 | 0.39 | 100 | 1114.6 |
| 20260506023021 | 49 | 336 | 3.0 | 5.0 | 0.11 | 0.37 | 0.37 | 100 | 1114.5 |
| 20260506022038 | 49 | 318 | 1.0 | 3.0 | 0.12 | 0.36 | 0.35 | 100 | 1114.3 |
| 20260506021038 | 49 | 305 | 0.0 | 3.0 | 0.10 | 0.33 | 0.33 | 100 | 1114.1 |
| 20260506020040 | 49 | 311 | 3.0 | 5.0 | 0.08 | 0.31 | 0.31 | 100 | 1114.0 |
| 20260506015137 | 49 | 337 | 2.0 | 4.0 | 0.06 | 0.28 | 0.28 | 100 | 1113.8 |
| 20260506014139 | 50 | 208 | 3.0 | 5.0 | 0.04 | 0.27 | 0.27 | 100 | 1113.8 |
| 20260506013238 | 50 | 272 | 1.0 | 4.0 | 0.03 | 0.26 | 0.26 | 100 | 1113.6 |
| 20260506012238 | 50 | 344 | 3.0 | 5.0 | 0.02 | 0.25 | 0.24 | 100 | 1113.2 |
| 20260506011242 | 50 | 206 | 1.0 | 1.0 | 0.00 | 0.23 | 0.23 | 100 | 1113.3 |
| 20260506011222 | 50 | 337 | 0.0 | 1.0 | 0.00 | 0.23 | 0.23 | 100 | 1113.3 |
| 20260505224241 | 55 | 292 | 2.0 | 4.0 | 0.15 | 0.22 | 0.22 | 100 | 1113.2 |
| 20260505222241 | 55 | 289 | 4.0 | 6.0 | 0.13 | 0.19 | 0.19 | 100 | 1113.4 |
| 20260505221241 | 56 | 260 | 1.0 | 3.0 | 0.11 | 0.17 | 0.16 | 100 | 1113.4 |
| 20260505220240 | 56 | 282 | 4.0 | 5.0 | 0.07 | 0.13 | 0.13 | 100 | 1113.5 |
| 20260505215326 | 57 | 292 | 3.0 | 7.0 | 0.03 | 0.09 | 0.09 | 100 | 1113.2 |
| 20260505213440 | 57 | 292 | 2.0 | 3.0 | 0.00 | 0.06 | 0.06 | 100 | 1112.7 |
| 20260505212442 | 57 | 281 | 1.0 | 3.0 | 0.00 | 0.07 | 0.06 | 100 | 1112.7 |
| 20260505211441 | 57 | 291 | 1.0 | 3.0 | 0.00 | 0.07 | 0.06 | 100 | 1112.8 |
| 20260505210442 | 57 | 303 | 4.0 | 5.0 | 0.02 | 0.07 | 0.06 | 100 | 1112.8 |
| 20260505205442 | 57 | 292 | 3.0 | 4.0 | 0.02 | 0.07 | 0.06 | 100 | 1112.9 |
| 20260505204523 | 57 | 270 | 3.0 | 7.0 | 0.03 | 0.07 | 0.06 | 100 | 1113.0 |
| 20260505203541 | 57 | 282 | 2.0 | 3.0 | 0.04 | 0.07 | 0.06 | 100 | 1113.2 |
| 20260505202640 | 57 | 270 | 2.0 | 3.0 | 0.04 | 0.07 | 0.06 | 100 | 1113.1 |
| 20260505201641 | 57 | 247 | 1.0 | 2.0 | 0.04 | 0.07 | 0.06 | 100 | 1113.5 |
| 20260505200725 | 57 | 270 | 2.0 | 3.0 | 0.02 | 0.05 | 0.04 | 100 | 1113.4 |
| 20260505195739 | 57 | 273 | 3.0 | 4.0 | 0.02 | 0.05 | 0.04 | 100 | 1113.4 |
| 20260505194740 | 58 | 274 | 3.0 | 4.0 | 0.02 | 0.05 | 0.04 | 100 | 1113.5 |
| 20260505193740 | 58 | 271 | 5.0 | 9.0 | 0.00 | 0.03 | 0.02 | 100 | 1113.8 |
| 20260505192838 | 59 | 279 | 5.0 | 8.0 | 0.00 | 0.03 | 0.02 | 100 | 1113.6 |
| 20260505191840 | 60 | 271 | 6.0 | 8.0 | 0.00 | 0.03 | 0.02 | 100 | 1113.6 |
| 20260505185841 | 60 | 292 | 3.0 | 5.0 | 0.00 | 0.03 | 0.02 | 100 | 1113.7 |
| 20260505184841 | 60 | 270 | 6.0 | 7.0 | 0.00 | 0.03 | 0.02 | 100 | 1113.6 |
| 20260505183939 | 61 | 281 | 5.0 | 8.0 | 0.00 | 0.03 | 0.02 | 100 | 1113.5 |
| 20260505182941 | 62 | 283 | 5.0 | 9.0 | 0.00 | 0.03 | 0.02 | 100 | 1113.7 |
| 20260505182039 | 62 | 287 | 4.0 | 7.0 | 0.00 | 0.03 | 0.02 | 100 | 1113.6 |
| 20260505180040 | 62 | 246 | 3.0 | 5.0 | 0.00 | 0.03 | 0.02 | 100 | 1113.6 |
| 20260505175124 | 62 | 259 | 3.0 | 6.0 | 0.00 | 0.03 | 0.02 | 100 | 1113.5 |
| 20260505174140 | 63 | 265 | 4.0 | 6.0 | 0.00 | 0.03 | 0.02 | 100 | 1113.6 |
| 20260505173140 | 63 | 266 | 5.0 | 8.0 | 0.00 | 0.03 | 0.02 | 100 | 1113.5 |
| 20260505172140 | 63 | 236 | 4.0 | 6.0 | 0.00 | 0.03 | 0.02 | 100 | 1113.7 |
| 20260505171222 | 63 | 264 | 4.0 | 6.0 | 0.00 | 0.03 | 0.02 | 100 | 1113.7 |
| 20260505170241 | 64 | 252 | 5.0 | 8.0 | 0.00 | 0.03 | 0.02 | 100 | 1113.7 |
| 20260505165239 | 65 | 258 | 5.0 | 9.0 | 0.00 | 0.03 | 0.02 | 100 | 1113.6 |
| 20260505164240 | 64 | 275 | 7.0 | 11.0 | 0.00 | 0.03 | 0.02 | 100 | 1113.6 |